Location: Piombino
(42.9256°N, 10.5259°E)
Time: 17:14:15
(UTC+01:00)

ISS - Visible Passes

Search period start: 05 December 2021 00:00
Search period end: 15 December 2021 00:00
Orbit: 417 x 422 km, 51.6° (Epoch: 05 December)

Date Brightness Start Highest point End Pass type
(mag) Time Alt. Az. Time Alt. Az. Time Alt. Az.
05 Dec -2.7 17:13:23 10° NW 17:16:25 29° NNE 17:19:26 10° E visible
05 Dec -2.9 18:50:04 10° WNW 18:53:03 51° WSW 18:53:03 51° WSW visible
06 Dec -3.8 18:02:38 10° WNW 18:06:02 89° SSW 18:08:21 19° SE visible
06 Dec -0.3 19:41:05 10° WSW 19:41:23 11° WSW 19:41:23 11° WSW visible
07 Dec -3.6 17:15:16 10° NW 17:18:38 58° NNE 17:21:59 10° ESE visible
07 Dec -1.1 18:52:40 10° W 18:55:10 19° SW 18:57:03 13° S visible
08 Dec -1.9 18:04:52 10° WNW 18:07:55 31° SW 18:10:58 10° SSE visible
09 Dec -2.8 17:17:17 10° WNW 17:20:36 53° SW 17:23:54 10° SE visible
10 Dec -0.3 18:08:19 10° WSW 18:09:33 12° SW 18:10:47 10° SSW visible
11 Dec -0.6 17:19:50 10° W 17:22:20 19° SW 17:24:49 10° S visible
